Regional Weather Roundup
Issued by NWS

Home | Current Version | Previous Version | Text Only | Print | Product List | Glossary Off
Versions: 1 2 3 4 5 6 7 8 9 10 11 12 13 14 15 16 17 18 19 20 21 22 23 24 25 26 27 28 29 30 31 32 33 34 35 36 37 38 39 40 41 42 43 44 45 46 47 48 49 50

000
ASUS43 KBIS 240810
RWRND
NORTH DAKOTA REGIONAL WEATHER ROUNDUP
NATIONAL WEATHER SERVICE EASTERN NORTH DAKOTA/GRAND FORKS ND
300 AM CDT SAT JUN 24 2017

  NOTE: "FAIR" INDICATES FEW OR NO CLOUDS BELOW 12,000 FEET WITH NO
  SIGNIFICANT WEATHER AND/OR OBSTRUCTIONS TO VISIBILITY.

NDZ001>003-009>011-017-240900-
...NORTHWEST NORTH DAKOTA...

CITY           SKY/WX    TMP DP  RH WIND       PRES   REMARKS
WILLISTON      FAIR      50  36  58 NW13      30.18R
MINOT          FAIR      46  42  86 NW13      30.09R
MINOT AFB      FAIR      44  41  88 NW12      30.08S
$$

NDZ018>021-031>035-040>046-240900-
...SOUTHWEST NORTH DAKOTA...

CITY           SKY/WX    TMP DP  RH WIND       PRES   REMARKS
BISMARCK       CLOUDY    51  40  65 NW10      30.11R
DICKINSON      MOCLDY    44  31  60 W9        30.13S
GARRISON         N/A     48  43  82 NW12      30.10S
HETTINGER      FAIR      38  30  73 NW6       30.19R WCI  33
$$

NDZ004>008-012>016-024-026-027-054-240900-
...NORTHEAST NORTH DAKOTA...

CITY           SKY/WX    TMP DP  RH WIND       PRES   REMARKS
GRAND FORKS    FAIR      47  42  83 W7        29.96F
GRAND FORKS AF FAIR      48  41  77 W7        29.97F
DEVILS LAKE    MOCLDY    49  40  71 NW16      30.01S
$$

NDZ022-023-025-028>030-036>039-047>053-240900-
...SOUTHEAST NORTH DAKOTA...

CITY           SKY/WX    TMP DP  RH WIND       PRES   REMARKS
JAMESTOWN      FAIR      47  40  76 W9        30.03F
FARGO          FAIR      47  40  76 W9        29.99F
WAHPETON       FAIR      43  37  81 W8        30.02S
$$




USA.gov is the U.S. government's official web portal to all federal, state and local government web resources and services.